HF3P-11 Weather Reports


Display with metric or nautical units.
time (UTC)temp
F
wind
direction
speed
MPH
gust
MPH
rain 1hr
in
rain 24hr
in
rain mn
in
humidity
%
barometer
mb
20240303024004 43 130 3.0 7.0 0.00 0.00 0.00 84 1004.6
20240303023511 43 133 3.0 8.0 0.00 0.00 0.00 84 1004.6
20240303023003 44 132 4.0 8.0 0.00 0.00 0.00 84 1004.8
20240303022512 44 119 4.0 8.0 0.00 0.00 0.00 84 1004.7
20240303022003 44 102 4.0 8.0 0.00 0.00 0.00 84 1004.6
20240303021512 44 107 4.0 8.0 0.00 0.00 0.00 84 1004.7
20240303021011 44 126 4.0 8.0 0.00 0.00 0.00 84 1004.8
20240303020511 44 127 4.0 8.0 0.00 0.00 0.00 83 1004.8
20240303020012 44 127 4.0 8.0 0.00 0.00 0.00 83 1005.0
20240303015503 44 132 4.0 8.0 0.00 0.00 0.00 83 1005.1
20240303015012 44 127 4.0 8.0 0.00 0.00 0.00 83 1005.0
20240303014504 44 129 4.0 8.0 0.00 0.00 0.00 83 1005.1
20240303014012 45 129 4.0 8.0 0.00 0.00 0.00 83 1005.1
20240303013504 45 126 3.0 8.0 0.00 0.00 0.00 83 1005.2
20240303013011 45 123 3.0 8.0 0.00 0.00 0.00 83 1005.3
20240303012503 45 122 4.0 9.0 0.00 0.00 0.00 83 1005.1
20240303012012 45 129 4.0 9.0 0.00 0.00 0.00 83 1005.3
20240303011504 45 135 5.0 10.0 0.00 0.00 0.00 82 1005.2
20240303011011 45 135 5.0 10.0 0.00 0.00 0.00 83 1005.3
20240303010503 46 131 5.0 9.0 0.00 0.00 0.00 82 1005.3
20240303010012 46 127 5.0 9.0 0.00 0.00 0.00 82 1005.4
20240303005503 46 116 4.0 8.0 0.00 0.00 0.00 82 1005.5
20240303005012 46 116 4.0 8.0 0.00 0.00 0.00 82 1005.4
20240303004503 46 119 4.0 11.0 0.00 0.00 0.00 82 1005.5
20240303004012 46 121 5.0 11.0 0.00 0.00 0.00 82 1005.5
20240303003503 46 126 5.0 9.0 0.00 0.00 0.00 82 1005.6
20240303003011 46 120 4.0 8.0 0.00 0.00 0.00 82 1005.4
20240303002504 46 122 4.0 8.0 0.00 0.00 0.00 81 1005.6
20240303002012 46 118 4.0 8.0 0.00 0.00 0.00 81 1005.4
20240303001503 47 102 4.0 8.0 0.00 0.00 0.00 81 1005.4
20240303001011 47 93 5.0 8.0 0.00 0.00 0.00 81 1005.5
20240303000504 47 104 5.0 8.0 0.00 0.00 0.00 81 1005.7
20240303000000 47 126 4.0 8.0 0.00 0.00 0.00 81 1005.7
20240302235452 47 129 4.0 7.0 0.00 0.00 0.00 80 1005.7
20240302235001 47 127 4.0 8.0 0.00 0.00 0.00 80 1005.8
20240302234452 47 126 4.0 9.0 0.00 0.00 0.00 80 1005.6
20240302234000 47 129 4.0 9.0 0.00 0.00 0.00 80 1005.7
20240302233452 47 130 4.0 9.0 0.00 0.00 0.00 80 1005.8
20240302233000 47 127 4.0 8.0 0.00 0.00 0.00 80 1005.7
20240302232452 47 122 4.0 8.0 0.00 0.00 0.00 80 1006.0
20240302232000 47 125 4.0 8.0 0.00 0.00 0.00 80 1005.8
20240302231452 47 127 4.0 8.0 0.00 0.00 0.00 80 1005.8
20240302231000 48 128 3.0 7.0 0.00 0.00 0.00 80 1005.8
20240302230452 48 137 3.0 7.0 0.00 0.00 0.00 79 1006.0
20240302230001 48 141 4.0 8.0 0.00 0.00 0.00 79 1005.9
20240302225452 48 138 4.0 8.0 0.00 0.00 0.00 79 1005.9
20240302224959 48 135 4.0 8.0 0.00 0.00 0.00 79 1005.8
20240302224452 48 148 4.0 8.0 0.00 0.00 0.00 79 1005.8
20240302224001 48 143 4.0 11.0 0.00 0.00 0.00 79 1005.8
20240302223452 48 140 5.0 11.0 0.00 0.00 0.00 79 1005.7
20240302223000 48 142 5.0 11.0 0.00 0.00 0.00 79 1006.0
20240302222452 48 139 5.0 11.0 0.00 0.00 0.00 79 1006.0
20240302221951 48 141 5.0 11.0 0.00 0.00 0.00 79 1005.9
20240302221459 48 138 5.0 11.0 0.00 0.00 0.00 79 1005.9
20240302221000 48 136 5.0 9.0 0.00 0.00 0.00 79 1005.8
20240302220452 48 132 4.0 9.0 0.00 0.00 0.00 79 1005.7
20240302220000 48 121 4.0 10.0 0.00 0.00 0.00 79 1005.7
20240302215459 48 113 5.0 10.0 0.00 0.00 0.00 79 1005.9
20240302214952 48 126 6.0 10.0 0.00 0.00 0.00 79 1005.7
20240302214500 48 139 5.0 10.0 0.00 0.00 0.00 79 1005.8
20240302213952 48 137 5.0 10.0 0.00 0.00 0.00 79 1005.9
20240302213501 48 130 5.0 12.0 0.00 0.00 0.00 79 1005.9
20240302212952 49 130 5.0 12.0 0.00 0.00 0.00 79 1005.8
20240302212452 49 134 5.0 11.0 0.00 0.00 0.00 79 1005.9
20240302212000 49 136 5.0 10.0 0.00 0.00 0.00 79 1005.9
20240302211500 49 143 5.0 11.0 0.00 0.00 0.00 79 1005.8
20240302210952 49 154 5.0 11.0 0.00 0.00 0.00 78 1005.8
20240302210500 48 162 5.0 11.0 0.00 0.00 0.00 79 1005.9
20240302205952 49 156 4.0 9.0 0.00 0.00 0.00 79 1005.8
20240302205452 49 148 5.0 10.0 0.00 0.00 0.00 78 1005.8
20240302205000 49 140 5.0 10.0 0.00 0.00 0.00 78 1005.7
20240302204452 49 135 6.0 11.0 0.00 0.00 0.00 78 1005.8
20240302204000 49 137 6.0 12.0 0.00 0.00 0.00 78 1005.7
20240302203452 49 135 6.0 12.0 0.00 0.00 0.00 78 1005.6
20240302203000 49 140 5.0 12.0 0.00 0.00 0.00 79 1005.7
20240302202500 49 146 5.0 11.0 0.00 0.00 0.00 78 1005.7
20240302201952 49 146 4.0 10.0 0.00 0.00 0.00 78 1005.5
20240302201500 49 134 5.0 13.0 0.00 0.00 0.00 78 1005.6
20240302200952 49 130 7.0 13.0 0.00 0.00 0.00 78 1005.6
20240302200500 49 132 7.0 15.0 0.00 0.00 0.00 78 1005.5
20240302195952 49 132 7.0 15.0 0.00 0.00 0.00 78 1005.5
20240302195500 49 131 7.0 14.0 0.00 0.00 0.00 78 1005.6
20240302194952 49 133 7.0 14.0 0.00 0.00 0.00 78 1005.6
20240302194500 49 139 7.0 14.0 0.00 0.00 0.00 78 1005.5
20240302193952 49 138 7.0 14.0 0.00 0.00 0.00 78 1005.5
20240302193500 49 136 8.0 15.0 0.00 0.00 0.00 78 1005.6
20240302192953 49 134 8.0 15.0 0.00 0.00 0.00 78 1005.5
20240302192500 49 132 8.0 15.0 0.00 0.00 0.00 78 1005.6
20240302191952 49 131 7.0 15.0 0.00 0.00 0.00 78 1005.7
20240302191500 49 133 8.0 17.0 0.00 0.00 0.00 78 1005.5
20240302190952 49 134 9.0 17.0 0.00 0.00 0.00 78 1005.5
20240302190453 49 133 9.0 17.0 0.00 0.00 0.00 78 1005.6
20240302190000 49 136 8.0 15.0 0.00 0.00 0.00 78 1005.8
20240302185452 49 141 8.0 15.0 0.00 0.00 0.00 78 1005.5
20240302185000 49 130 8.0 15.0 0.00 0.00 0.00 78 1005.6
20240302184452 49 131 7.0 14.0 0.00 0.00 0.00 78 1005.7
20240302184000 49 134 7.0 12.0 0.00 0.00 0.00 78 1005.7
20240302183500 50 133 8.0 15.0 0.00 0.00 0.00 78 1005.7
20240302183000 50 137 9.0 15.0 0.00 0.00 0.00 78 1005.6
20240302182453 50 133 8.0 15.0 0.00 0.00 0.00 78 1005.7
20240302182001 50 120 7.0 15.0 0.00 0.00 0.00 78 1005.5
20240302181452 50 121 7.0 13.0 0.00 0.00 0.00 78 1005.6
20240302181000 50 133 7.0 13.0 0.00 0.00 0.00 78 1005.8
20240302180452 50 131 7.0 14.0 0.00 0.00 0.00 78 1005.6
20240302180000 51 127 8.0 17.0 0.00 0.00 0.00 77 1005.4
20240302175453 51 127 7.0 17.0 0.00 0.00 0.00 77 1005.3
20240302175000 50 128 7.0 13.0 0.00 0.00 0.00 77 1005.5
20240302174452 51 117 7.0 14.0 0.00 0.00 0.00 77 1005.6
20240302173952 51 103 7.0 14.0 0.00 0.00 0.00 77 1005.5
20240302173500 51 108 7.0 14.0 0.00 0.00 0.00 77 1005.5
20240302172952 51 118 6.0 15.0 0.00 0.00 0.00 77 1005.4
20240302172500 51 119 6.0 15.0 0.00 0.00 0.00 76 1005.4
20240302171952 51 121 6.0 15.0 0.00 0.00 0.00 76 1005.6
20240302171500 51 125 7.0 11.0 0.00 0.00 0.00 76 1005.7
20240302170952 51 130 7.0 11.0 0.00 0.00 0.00 76 1005.4
20240302170500 52 123 6.0 11.0 0.00 0.00 0.00 75 1005.5
20240302165952 52 116 6.0 11.0 0.00 0.00 0.00 75 1005.5
20240302165500 52 128 6.0 12.0 0.00 0.00 0.00 75 1005.4
20240302165000 52 120 7.0 14.0 0.00 0.00 0.00 75 1005.3
20240302164453 52 116 7.0 14.0 0.00 0.00 0.00 75 1005.3
20240302164000 52 127 6.0 11.0 0.00 0.00 0.00 75 1005.4
20240302163453 53 126 6.0 11.0 0.00 0.00 0.00 75 1005.2
20240302162953 53 116 6.0 11.0 0.00 0.00 0.00 74 1005.2
20240302162500 53 115 5.0 11.0 0.00 0.00 0.00 74 1005.3
20240302161953 53 114 5.0 10.0 0.00 0.00 0.00 74 1005.3
20240302161501 53 102 4.0 10.0 0.00 0.00 0.00 73 1005.3
20240302160952 53 95 4.0 8.0 0.00 0.00 0.00 73 1005.3
20240302160500 54 102 3.0 8.0 0.00 0.00 0.00 71 1005.3
20240302155952 54 116 4.0 10.0 0.00 0.00 0.00 71 1005.2
20240302155500 54 123 4.0 10.0 0.00 0.00 0.00 71 1005.3
20240302154952 54 132 5.0 10.0 0.00 0.00 0.00 71 1005.3
20240302154500 54 135 5.0 9.0 0.00 0.00 0.00 70 1005.3
20240302153952 54 135 4.0 9.0 0.00 0.00 0.00 70 1005.3
20240302153453 54 129 4.0 9.0 0.00 0.00 0.00 70 1005.3
20240302153000 54 127 5.0 9.0 0.00 0.00 0.00 70 1005.3
20240302152453 54 133 5.0 11.0 0.00 0.00 0.00 69 1005.4
20240302152000 54 132 6.0 12.0 0.00 0.00 0.00 69 1005.4
20240302151453 54 131 5.0 12.0 0.00 0.00 0.00 69 1005.3
20240302151000 55 134 3.0 8.0 0.00 0.00 0.00 69 1005.5
20240302150452 55 130 4.0 10.0 0.00 0.00 0.00 69 1005.4
20240302150000 55 135 5.0 10.0 0.00 0.00 0.00 69 1005.4
20240302145453 55 138 5.0 13.0 0.00 0.00 0.00 68 1005.3
20240302145001 55 132 7.0 13.0 0.00 0.00 0.00 68 1005.4
20240302144500 56 121 6.0 12.0 0.00 0.00 0.00 68 1005.4
20240302144000 56 120 5.0 11.0 0.00 0.00 0.00 68 1005.5
20240302143452 56 128 4.0 10.0 0.00 0.00 0.00 68 1005.4
20240302143000 56 123 5.0 8.0 0.00 0.00 0.00 68 1005.5
20240302142501 56 120 4.0 8.0 0.00 0.00 0.00 67 1005.4
20240302141953 56 126 4.0 9.0 0.00 0.00 0.00 67 1005.3
20240302141501 56 133 5.0 10.0 0.00 0.00 0.00 66 1005.5
20240302140953 56 135 5.0 10.0 0.00 0.00 0.00 65 1005.3
20240302140501 57 135 5.0 11.0 0.00 0.00 0.00 66 1005.5
20240302135953 57 135 5.0 11.0 0.00 0.00 0.00 65 1005.5
20240302135501 57 137 6.0 12.0 0.00 0.00 0.00 65 1005.2
20240302134953 57 140 7.0 13.0 0.00 0.00 0.00 65 1005.3
20240302134501 57 136 8.0 14.0 0.00 0.00 0.00 64 1005.2
20240302133953 57 132 7.0 14.0 0.00 0.00 0.00 63 1005.3
20240302133500 58 137 5.0 14.0 0.00 0.00 0.00 63 1005.3
20240302132953 58 147 5.0 9.0 0.00 0.00 0.00 62 1005.3
20240302132501 59 159 4.0 8.0 0.00 0.00 0.00 62 1005.2
20240302131953 59 164 5.0 11.0 0.00 0.00 0.00 61 1005.2
20240302131501 59 161 7.0 12.0 0.00 0.00 0.00 60 1005.1
20240302130953 59 169 7.0 12.0 0.00 0.00 0.00 58 1005.1
20240302130501 60 178 7.0 11.0 0.00 0.00 0.00 58 1005.3
20240302125953 59 178 6.0 11.0 0.00 0.00 0.00 58 1005.3
20240302125500 59 181 6.0 11.0 0.00 0.00 0.00 59 1005.2
20240302124952 59 176 5.0 12.0 0.00 0.00 0.00 58 1005.2
20240302124500 59 172 5.0 13.0 0.00 0.00 0.00 60 1005.1
20240302123953 59 176 6.0 13.0 0.00 0.00 0.00 59 1005.2
20240302123500 59 182 6.0 15.0 0.00 0.00 0.00 60 1005.3
20240302122952 59 182 6.0 15.0 0.00 0.00 0.00 59 1005.3
20240302122500 60 185 5.0 13.0 0.00 0.00 0.00 59 1005.3
20240302121952 59 188 6.0 12.0 0.00 0.00 0.00 59 1005.3
20240302121501 59 188 6.0 12.0 0.00 0.00 0.00 59 1005.3
20240302120953 59 185 6.0 12.0 0.00 0.00 0.00 60 1005.2
20240302120452 59 186 6.0 12.0 0.00 0.00 0.00 60 1005.1
20240302120000 59 183 7.0 14.0 0.00 0.00 0.00 60 1005.3
20240302115452 59 185 8.0 14.0 0.00 0.00 0.00 59 1005.2
20240302115000 59 187 8.0 14.0 0.00 0.00 0.00 60 1005.2
20240302114453 59 182 9.0 16.0 0.00 0.00 0.00 60 1005.2
20240302114000 59 179 8.0 16.0 0.00 0.00 0.00 59 1005.3
20240302113452 59 183 7.0 15.0 0.00 0.00 0.00 61 1005.3
20240302113001 58 197 7.0 15.0 0.00 0.00 0.00 60 1005.4
20240302112452 58 192 7.0 12.0 0.00 0.00 0.00 61 1005.2
20240302112001 58 188 6.0 11.0 0.00 0.00 0.00 62 1005.5
20240302111453 58 179 5.0 11.0 0.00 0.00 0.00 63 1005.3
20240302111001 57 148 4.0 11.0 0.00 0.00 0.00 64 1005.4
20240302110453 56 149 3.0 7.0 0.00 0.00 0.00 66 1005.4
20240302110000 57 155 3.0 8.0 0.00 0.00 0.00 67 1005.6
20240302105454 56 148 3.0 8.0 0.00 0.00 0.00 68 1005.6
20240302105000 55 124 4.0 8.0 0.00 0.00 0.00 69 1005.6
20240302104452 55 99 4.0 8.0 0.00 0.00 0.00 68 1005.7
20240302104001 54 110 4.0 8.0 0.00 0.00 0.00 68 1005.7
20240302103453 54 121 5.0 11.0 0.00 0.00 0.00 68 1005.6
20240302103000 54 119 4.0 11.0 0.00 0.00 0.00 69 1005.7
20240302102453 54 128 4.0 11.0 0.00 0.00 0.00 70 1005.8
20240302102000 54 139 5.0 11.0 0.00 0.00 0.00 69 1005.5
20240302101453 53 119 6.0 11.0 0.00 0.00 0.00 70 1005.7
20240302101000 53 96 7.0 11.0 0.00 0.00 0.00 70 1005.7
20240302100453 53 102 7.0 15.0 0.00 0.00 0.00 71 1005.8
20240302100000 53 113 7.0 15.0 0.00 0.00 0.00 71 1005.8
20240302095453 53 108 6.0 15.0 0.00 0.00 0.00 70 1005.9
20240302095000 54 108 5.0 12.0 0.00 0.00 0.00 68 1005.7
20240302094452 55 108 5.0 12.0 0.00 0.00 0.00 68 1005.7
20240302094001 55 121 5.0 12.0 0.00 0.00 0.00 68 1005.7
20240302093452 55 152 5.0 10.0 0.00 0.00 0.00 67 1005.8
20240302093001 55 177 5.0 11.0 0.00 0.00 0.00 68 1005.7
20240302092452 55 181 5.0 11.0 0.00 0.00 0.00 68 1005.5
20240302092001 55 168 5.0 9.0 0.00 0.00 0.00 69 1005.5
20240302091454 55 164 5.0 9.0 0.00 0.00 0.00 70 1005.7
20240302091000 54 173 4.0 9.0 0.00 0.00 0.00 71 1005.4
20240302090453 54 169 5.0 12.0 0.00 0.00 0.00 72 1005.8
20240302090000 54 165 6.0 12.0 0.00 0.00 0.00 73 1005.6
20240302085452 54 171 6.0 14.0 0.00 0.00 0.00 74 1005.7
20240302085001 53 175 5.0 14.0 0.00 0.00 0.00 74 1005.8
20240302084453 52 176 5.0 13.0 0.00 0.00 0.00 76 1005.5
20240302084001 52 171 6.0 13.0 0.00 0.00 0.00 76 1005.6
20240302083453 51 166 4.0 10.0 0.00 0.00 0.00 77 1005.6
20240302083000 51 171 3.0 9.0 0.00 0.00 0.00 79 1005.4
20240302082453 50 172 4.0 10.0 0.00 0.00 0.00 79 1005.5
20240302082000 50 170 5.0 11.0 0.00 0.00 0.00 79 1005.6
20240302081453 50 174 4.0 11.0 0.00 0.00 0.00 80 1005.5
20240302081001 50 207 3.0 7.0 0.00 0.00 0.00 80 1005.6
20240302080453 49 195 3.0 7.0 0.00 0.00 0.00 81 1005.4
20240302080001 49 154 4.0 8.0 0.00 0.00 0.00 81 1005.5
20240302075453 49 145 3.0 8.0 0.00 0.00 0.00 82 1005.6
20240302075001 49 145 3.0 8.0 0.00 0.00 0.00 82 1005.5
20240302074453 48 139 3.0 8.0 0.00 0.00 0.00 82 1005.6
20240302074001 48 134 3.0 8.0 0.00 0.00 0.00 82 1005.4
20240302073453 48 127 3.0 7.0 0.00 0.00 0.00 82 1005.4
20240302073000 47 130 3.0 7.0 0.00 0.00 0.00 83 1005.2
20240302072453 47 127 3.0 7.0 0.00 0.00 0.00 83 1005.2
20240302072001 47 114 3.0 7.0 0.00 0.00 0.00 83 1005.1
20240302071453 47 121 3.0 6.0 0.00 0.00 0.00 83 1005.0
20240302071001 46 134 4.0 7.0 0.00 0.00 0.00 84 1005.1
20240302070454 46 133 3.0 7.0 0.00 0.01 0.00 84 1005.3
20240302070001 46 136 2.0 7.0 0.00 0.01 0.00 84 1005.2
20240302065453 46 135 4.0 10.0 0.00 0.01 0.00 84 1005.1
20240302065001 46 135 5.0 10.0 0.00 0.01 0.00 84 1005.2
20240302064453 46 143 4.0 10.0 0.00 0.01 0.00 84 1005.1
20240302064001 46 151 4.0 9.0 0.00 0.01 0.00 84 1005.0
20240302063453 46 157 4.0 10.0 0.00 0.01 0.00 84 1005.1
20240302063002 46 157 4.0 10.0 0.00 0.01 0.00 84 1005.0
20240302062453 46 147 4.0 9.0 0.00 0.01 0.00 84 1005.0
20240302062001 46 137 5.0 10.0 0.00 0.01 0.00 84 1004.9
20240302061453 46 132 5.0 10.0 0.00 0.01 0.00 84 1004.8
20240302061001 46 108 5.0 10.0 0.00 0.01 0.00 84 1005.1
20240302060453 46 117 5.0 11.0 0.00 0.01 0.00 84 1005.1
20240302060001 46 133 4.0 11.0 0.00 0.01 0.00 84 1004.8
20240302055453 46 120 4.0 9.0 0.00 0.01 0.00 84 1004.9
20240302055001 46 136 4.0 9.0 0.00 0.01 0.00 84 1004.8
20240302054453 46 138 4.0 12.0 0.00 0.01 0.00 84 1004.7
20240302054002 46 137 5.0 12.0 0.00 0.01 0.00 84 1004.7
20240302053453 46 141 5.0 11.0 0.00 0.01 0.00 85 1004.7
20240302053001 46 134 4.0 11.0 0.00 0.01 0.00 85 1004.6
20240302052453 46 138 5.0 10.0 0.00 0.01 0.00 85 1004.7
20240302052001 46 139 5.0 10.0 0.00 0.01 0.00 85 1004.6
20240302051453 47 143 4.0 10.0 0.00 0.01 0.00 85 1004.5
20240302051001 46 155 4.0 7.0 0.00 0.01 0.00 85 1004.6
20240302050453 46 146 4.0 8.0 0.00 0.01 0.00 85 1004.6
20240302050001 46 137 4.0 11.0 0.00 0.01 0.00 85 1004.3
20240302045454 46 139 5.0 11.0 0.00 0.01 0.00 85 1004.4
20240302045001 46 142 5.0 11.0 0.00 0.01 0.00 85 1004.5
20240302044453 46 144 5.0 11.0 0.00 0.01 0.00 85 1004.4
20240302044002 46 140 5.0 10.0 0.00 0.01 0.00 85 1004.4
20240302043454 46 133 5.0 11.0 0.00 0.01 0.00 85 1004.5
20240302043002 46 129 5.0 11.0 0.00 0.01 0.00 85 1004.4
20240302042453 46 139 5.0 11.0 0.00 0.01 0.00 85 1004.3
20240302042002 47 151 5.0 11.0 0.00 0.01 0.00 85 1004.3
20240302041453 47 142 5.0 11.0 0.00 0.01 0.00 85 1004.3
20240302041002 47 137 6.0 11.0 0.00 0.01 0.00 85 1004.3
20240302040501 47 136 6.0 11.0 0.00 0.01 0.00 85 1004.1
20240302035953 47 141 6.0 13.0 0.00 0.01 0.00 85 1004.1
20240302035502 47 137 6.0 13.0 0.00 0.01 0.00 85 1004.3
20240302034953 47 136 6.0 15.0 0.00 0.01 0.00 85 1004.2
20240302034501 47 137 6.0 15.0 0.00 0.01 0.00 85 1004.2
20240302033953 47 138 7.0 15.0 0.00 0.01 0.00 85 1004.2
20240302033502 47 140 7.0 13.0 0.00 0.01 0.00 85 1004.2
20240302032953 47 145 6.0 15.0 0.00 0.01 0.00 85 1004.3
20240302032501 47 156 6.0 15.0 0.00 0.01 0.00 85 1004.3
20240302031953 47 158 7.0 15.0 0.00 0.01 0.00 85 1004.4
20240302031501 47 145 7.0 15.0 0.00 0.01 0.00 85 1004.3
20240302030954 47 134 8.0 14.0 0.00 0.01 0.00 85 1004.5
20240302030502 47 139 8.0 14.0 0.00 0.01 0.00 86 1004.4
20240302025953 47 151 7.0 13.0 0.00 0.01 0.00 86 1004.6
20240302025501 47 159 7.0 15.0 0.00 0.01 0.00 86 1004.4
20240302024954 47 157 6.0 15.0 0.00 0.01 0.00 86 1004.5
20240302024502 47 142 5.0 12.0 0.00 0.01 0.00 86 1004.5